Regional Weather Roundup
Issued by NWS Albany, NY

Home | Current Version | Previous Version | Text Only | Print | Product List | Glossary On
Versions: 1 2 3 4 5 6 7 8 9 10 11 12 13 14 15 16 17 18 19 20 21 22 23 24 25 26 27 28 29 30 31 32 33 34 35 36 37 38 39 40 41 42 43 44 45 46 47 48 49 50
000
ASUS41 KALY 111310
RWRALY

NEW YORK STATE HOURLY WEATHER ROUNDUP
NATIONAL WEATHER SERVICE ALBANY NY
800 AM EST THU FEB 11 2016

NOTE: "FAIR" INDICATES FEW OR NO CLOUDS BELOW 12,000 FEET WITH NO
SIGNIFICANT WEATHER AND/OR NO OBSTRUCTIONS TO VISIBILITY.

NYZ032-033-038>043-046>054-057>066-NYZ062>081-111400-
EAST


CITY           SKY/WX    TMP DP  RH WIND       PRES   REMARKS
ALBANY         MOCLDY    20   4  50 W16G25    29.80R WCI   6
GLENS FALLS    CLOUDY    20   3  48 W7        29.75R WCI  11
POUGHKEEPSIE   CLEAR     22  -3  33 W15G25    29.83R WCI   9
NEWBURGH       CLEAR     18   5  57 W18       29.83R WCI   2
MONTGOMERY     CLEAR     20   3  48 W9        29.84R WCI   9
WHITE PLAINS   MOSUNNY   20   0  41 W21G28    29.83R WCI   4
ISLIP          MOSUNNY   24   2  38 NW22G30   29.82R WCI   9
NEW YORK CITY  MOSUNNY   24   4  42 W13G26    29.89R WCI  12
CENTRAL PARK   SUNNY     23   1  38 W9G23     29.90R WCI  13
$$

NYZ005>009-017-018-044>046-055-056-111400-
CENTRAL


CITY           SKY/WX    TMP DP  RH WIND       PRES   REMARKS
FULTON         LGT SNOW  14   4  64 W22G33    29.84R VSB 1   WCI  -4
SYRACUSE       SNOW      13  11  92 W18G24    29.83R VSB 1/2 WCI  -4
ROME           SNOW      13  10  88 W13       29.82R VSB 1/4 WCI  -2
ELMIRA         CLEAR     14  -1  51 NW20G28   29.85R WCI  -3
BINGHAMTON     CLOUDY    10   4  76 W9        29.75R WCI  -3
MONTICELLO     CLEAR     12   3  67 W12G20    29.76R WCI  -2
$$

NYZ026>034-041>043-111400-
NORTH


CITY           SKY/WX    TMP DP  RH WIND       PRES   REMARKS
WATERTOWN      CLOUDY     6   1  80 N10       29.85R WCI  -9
FORT DRUM      NOT AVBL
MASSENA        MOCLDY     5  -2  72 W12       29.82R WCI -11
SARANAC LAKE   CLOUDY     8   3  80 W7        29.61R HAZE    WCI  -3
PLATTSBURGH    CLOUDY    17   6  62 W5        29.73R WCI  10
$$

NYZ001>004-010>016-019>021-111400-
WEST


CITY           SKY/WX    TMP DP  RH WIND       PRES   REMARKS
NIAGARA FALLS  MOCLDY    11  -2  56 NW20      29.96R WCI  -7
BUFFALO        MOCLDY     7  -1  70 W15       29.95R WCI -10
DUNKIRK        CLOUDY    11   1  64 NW14G25   30.00R WCI  -5
JAMESTOWN      CLOUDY     9   1  72 NW15G25   29.87R WCI  -8
WELLSVILLE     SNOW       8   2  76 NW16G25   29.80R VSB 1/2 WCI -10
ROCHESTER      LGT SNOW  11   3  70 NW16G24   29.90R BLWGSNOWWCI  -6
PENN YAN       CLOUDY    11   0  61 W16G24    29.85R WCI  -6
$$

             KEY
       WCI = WIND CHILL INDEX
       VSB = VISIBILITY
       HX  = HEAT INDEX
$$



USA.gov is the U.S. government's official web portal to all federal, state and local government web resources and services.